星链-1423 (STARLINK-1423 )

导读 | 星芒AI

STARLINK-1423 是 SpaceX Starlink 卫星互联网项目中的一颗低轨卫星,属于第二代 Starlink 卫星星座的一部分。该卫星旨在为全球用户提供高速、低延迟的宽带互联网服务,特别关注偏远和网络基础设施薄弱的地区。它运行在约 550 公里的轨道高度,配备先进通信设备,支持高频段数据传输。作为 Starlink 计划的重要组成,STARLINK-1423 有助于提升全球网络覆盖和连接质量。

基本信息
目录编号:
45710
目录名称:
STARLINK-1423
国际标识:
2020-035BF
轨道中心:
EARTH
卫星名称:
星链-1423
卫星全名:
星链-1423 (STARLINK-1423 )
卫星状态:
在轨 (已飞行2021 天)
发射日期:
2020-06-04 UTC
国别 :
美国 (US)
星等 :
--
轨道信息
数据来源 国际轨道数据
星历时间: 2025-12-15T05:48:57+0800
1天前
查看轨道信息
半长轴: 6925.356km
偏心率: 0.0001457
轨道倾角: 53.055°
近地点辐角 90.702°
升交点赤经 57.214°
平近点角 269.413°
近地点: 546.211km
远地点: 548.231km
周期: 95.592分钟
每日圈数: 15.063976
详细信息
固有亮度:
5
最大亮度:
2.5
卫星平台:
Starlink V1.0
覆盖范围:
全球
运营商:
太空探索技术公司
运营商所在国:
美国
制造商(研发单位):
太空探索技术公司
制造商所在国:
美国
使用方式:
暂无
卫星简介
星链(Starlink)计划是由太空探索技术公司(SpaceX)提出的一个巨型低轨卫星互联网星座项目,计划在2019年至2024年间在太空搭建由约1.2万颗卫星组成的“星链”网络,其中1584颗将部署在地球上空550千米处的近地轨道,并从2020年开始工作。该卫星仍在工作。
2D轨道图
3D轨道图
轨道高度分析图
轨道倾角分析图
轨道综合分析图
查看轨道综合分析图